Weather in Nekrasovka

Russia / Khabarovsk Krai     48°20′58″N   135°14′09″E
temp.,
°C
wind,
m/s
gust,
m/s
humid.,
%
clouds,
%
prec.,
mm/h
press.,
hPa
HPBL,
m
27 february, sat
sat2701:00−22ssw23983 0.0 103435
04:00−23ssw239924 0.0 103541
07:00−23s239946 0.0 103649
10:00−18ssw369253 0.0 1035237
13:00−12ssw358637 0.0 1033360
16:00−9s368368 0.0 1029505
19:00−11sse2289100 0.0 102627
22:00−9ssw2888100 0.0 1023241
28 february, sun
sun2801:00−9ssw2789100 0.0 1020255
04:00−7ssw51594100 0.8 1018738
07:00−4sw51295100 1.5 1018661
10:00−3wsw3790100 1.9 1018521
13:00−4w4882100 0.0 1019697
16:00−7w4778100 0.0 1020679
19:00−11w3583100 0.0 1023184
22:00−14wsw3586100 0.0 1025146
1 march, mon
mon101:00−17w3885100 0.0 1026251
04:00−21wsw368461 0.0 1028186
07:00−23sw37860 0.0 1030190
10:00−19wsw410770 0.0 1031526
13:00−15w610650 0.0 1031981
16:00−14w59650 0.0 10321355
19:00−18sw37840 0.0 1032152
22:00−21sw338715 0.0 103348
2 march, tue
tue201:00−23sw238911 0.0 103332
04:00−23sw229253 0.0 103320
07:00−24sw229570 0.0 103322
10:00−19sw258036 0.0 1033273
13:00−15wnw47640 0.0 1031840
16:00−15wnw47690 0.0 1030768
19:00−20sw22820 0.0 103122
22:00−22sw22820 0.0 103220
3 march, wed
wed301:00−24ssw22880 0.0 103121
04:00−25ssw22900 0.0 103120
07:00−25s23910 0.0 103125
10:00−20s24860 0.0 1029191
13:00−13s35740 0.0 1026431
16:00−11s267745 0.0 1022560
19:00−12sse1286100 0.0 102020
22:00−12sw2596100 0.1 1019208